This is the latest recevied weather packets stored in our database for station/object KD5FHA. If no packets are shown the sender has not sent any weather packets the latest 1 day(s).
| Time | Temp. | Humidity | Pressure | Rain* | Wind** | Luminosity | Snow |
|---|---|---|---|---|---|---|---|
| 1778035355 | 22.78° C | 67% | 1008.3 hPa | 0 mm | 2.68 m/s, 20° | 0 W/m² | - |
| 1778035051 | 23.33° C | 66% | 1008 hPa | 0 mm | 1.79 m/s, 2° | 0 W/m² | - |
| 1778034748 | 23.89° C | 66% | 1008 hPa | 0 mm | 2.68 m/s, 29° | 0 W/m² | - |
| 1778034445 | 23.89° C | 66% | 1007.8 hPa | 0 mm | 2.24 m/s, 41° | 0 W/m² | - |
| 1778034143 | 23.89° C | 66% | 1007.8 hPa | 0 mm | 4.47 m/s, 14° | 0 W/m² | - |
| 1778033841 | 24.44° C | 66% | 1007.6 hPa | 0 mm | 1.79 m/s, 27° | 0 W/m² | - |
| 1778033537 | 24.44° C | 66% | 1007.3 hPa | 0 mm | 1.79 m/s, 51° | 0 W/m² | - |
| 1778033234 | 25° C | 65% | 1007.1 hPa | 0 mm | 2.68 m/s, 15° | 0 W/m² | - |
| 1778032932 | 25° C | 65% | 1007 hPa | 0 mm | 2.24 m/s, 12° | 0 W/m² | - |
| 1778032629 | 25° C | 64% | 1006.9 hPa | 0 mm | 1.34 m/s, 41° | 0 W/m² | - |
| 1778032327 | 25.56° C | 63% | 1006.8 hPa | 0 mm | 3.58 m/s, 27° | 0 W/m² | - |
| 1778032024 | 26.11° C | 63% | 1006.8 hPa | 0 mm | 2.68 m/s, 29° | 0 W/m² | - |
| 1778031719 | 26.11° C | 63% | 1006.4 hPa | 0 mm | 0 m/s | 0 W/m² | - |
| 1778031418 | 26.11° C | 62% | 1006.6 hPa | 0 mm | 2.24 m/s, 28° | 0 W/m² | - |
| 1778031114 | 26.67° C | 62% | 1006.5 hPa | 0 mm | 1.79 m/s, 10° | 0 W/m² | - |
| 1778030810 | 26.67° C | 62% | 1006.4 hPa | 0 mm | 1.34 m/s, 10° | 0 W/m² | - |
| 1778030507 | 26.67° C | 62% | 1006.3 hPa | 0 mm | 1.79 m/s, 27° | 0 W/m² | - |
| 1778030205 | 26.67° C | 61% | 1006.2 hPa | 0 mm | 1.79 m/s, 17° | 0 W/m² | - |
| 1778029901 | 27.22° C | 61% | 1006.5 hPa | 0 mm | 1.34 m/s, 5° | 1 W/m² | - |
| 1778029600 | 27.22° C | 60% | 1006.3 hPa | 0 mm | 3.13 m/s, 31° | 3 W/m² | - |
| 1778029297 | 27.22° C | 60% | 1006.2 hPa | 0 mm | 1.34 m/s, 30° | 4 W/m² | - |
| 1778028993 | 27.22° C | 60% | 1005.8 hPa | 0 mm | 0.45 m/s, 246° | 6 W/m² | - |
| 1778028690 | 27.22° C | 60% | 1005.8 hPa | 0 mm | 0.45 m/s, 18° | 11 W/m² | - |
| 1778028386 | 27.78° C | 60% | 1006 hPa | 0 mm | 2.68 m/s, 28° | 8 W/m² | - |
| 1778028084 | 27.78° C | 60% | 1006.1 hPa | 0 mm | 2.68 m/s, 36° | 6 W/m² | - |
* Rain latest hour (hover to see other rain measurements)
** Current wind speed in m/s (hover to see current wind gust speed)